Regional Weather Roundup
Issued by NWS

Home | Current Version | Previous Version | Graphics & Text | Print | Product List | Glossary On
Versions: 1 2 3 4 5 6 7 8 9 10 11 12 13 14 15 16 17 18 19 20 21 22 23 24 25 26 27 28 29 30 31 32 33 34 35 36 37 38 39 40 41 42 43 44 45 46 47 48 49 50
199
ASUS43 KLOT 241108
RWRIL

ILLINOIS REGIONAL WEATHER ROUNDUP
NATIONAL WEATHER SERVICE CHICAGO/ROMEOVILLE IL
500 AM CST TUE JAN 24 2017

NOTE: "FAIR" INDICATES FEW OR NO CLOUDS BELOW 12,000 FEET WITH NO
SIGNIFICANT WEATHER AND/OR OBSTRUCTIONS TO VISIBILITY.

* THESE STATIONS ARE NOT UNDER NWS QUALITY CONTROL. THEY ALSO MAY NOT
  REPORT WEATHER SUCH AS PRECIPITATION OR FOG.

ILZ001-002-007-009-015-016-024-241200-
NORTHWEST ILLINOIS

CITY           SKY/WX    TMP DP  RH WIND       PRES   REMARKS
MOLINE         CLOUDY    34  30  85 W5        29.88R WCI  30
STERLING*      CLOUDY    34  33  96 W3        29.88R
SAVANNA*       CLOUDY    34  32  93 CALM      29.87S
$$

ILZ003-004-008-010-011-017-018-241200-
NORTH CENTRAL ILLINOIS

CITY           SKY/WX    TMP DP  RH WIND       PRES   REMARKS
ROCKFORD       CLOUDY    36  31  82 NW7       29.87R WCI  30
FREEPORT*      CLOUDY    34  30  86 CALM      29.88R
ROCHELLE*      CLOUDY    35  32  90 W3        29.86S
DE KALB*       CLOUDY    35  32  90 NW6       29.85R WCI  30
PERU*          CLOUDY    34  32  93 W6        29.87S FOG     WCI  29
$$

ILZ005-006-012>014-019>023-241200-
NORTHEAST ILLINOIS

CITY           SKY/WX    TMP DP  RH WIND       PRES   REMARKS
CHICAGO-OHARE  CLOUDY    36  33  89 NW10      29.83S WCI  28
CHICAGO-MIDWAY CLOUDY    38  32  79 NW9       29.84R WCI  31
AURORA         CLOUDY    36  32  85 NW6       29.85S WCI  31
LANSING*       CLOUDY    38  35  89 NW3       29.84S
JOLIET*        CLOUDY    38  34  84 NW3       29.86S
WAUKEGAN       CLOUDY    37  33  85 NW7       29.82S WCI  32
DUPAGE AIRPORT CLOUDY    37  31  78 N8        29.84R WCI  31
KANKAKEE*      CLOUDY    37  33  84 NW8       29.87R WCI  31
WHEELING       CLOUDY    36  32  85 NW10      29.85R WCI  28
MORRIS*        CLOUDY    37  34  89 CALM      29.85S
ROMEOVILLE*    CLOUDY    36  35  94 N8        29.85S WCI  30
NORTHERLY ISL    N/A     37  33  85 N12         N/A  WCI  29
$$

LMZ740>746-241200-
SOUTHERN LAKE MICHIGAN

STATION/POSITION SKY/WX   TEMP    WIND        PRES    VSBY  WAVE
                          AIR SEA DIR/SP/G                  HT/PER
                          (F)     (DEG/KT/KT) (MB)    (MI)  (FT/S)
HARRISON CRIB              38     330/ 10/ 11   N/A
BURNHAM HARBOR             37     270/ 11/ 12   N/A
CALUMET HARBOR             38     330/  5/  8 1010.0R
BURNS HARBOR               36     320/  8/ 13 1010.8
MICHIGAN CITY              36     270/ 15/ 16   N/A
$$

ILZ025>027-034>036-040-047-049-050-058-095>099-241200-
WEST-CENTRAL ILLINOIS

CITY           SKY/WX    TMP DP  RH WIND       PRES   REMARKS
QUINCY         CLOUDY    34  29  82 S6        29.89R WCI  29
GALESBURG*     CLOUDY    32  32 100 CALM      29.88S
MACOMB*        CLOUDY    33  32  95 W6        29.92R WCI  27
JACKSONVILLE*  CLOUDY    35  32  88 CALM      29.89S
PITTSFIELD*    CLOUDY    35  31  85 CALM      29.90S
$$

ILZ028>032-037-038-041>044-048-051>054-059>061-241200-
CENTRAL ILLINOIS

CITY           SKY/WX    TMP DP  RH WIND       PRES   REMARKS
PONTIAC        CLOUDY    37  37 100 NW6       29.87S FOG     WCI  33
BLOOMINGTON    CLOUDY    36  34  92 NW5       29.86S WCI  32
DECATUR        CLOUDY    38  36  92 NW6       29.87R WCI  33
PEORIA         CLOUDY    35  33  92 NW5       29.89R WCI  31
LACON*         CLOUDY    35  33  94 CALM      29.88R
LINCOLN*       CLOUDY    37  35  93 CALM      29.88S
SPRINGFIELD    CLOUDY    38  34  85 W5        29.90R WCI  34
TAYLORVILLE    CLOUDY    36  33  88 W6        29.89S WCI  31
$$

ILZ033-039-045-046-055>057-062-063-241200-
EAST-CENTRAL ILLINOIS

CITY           SKY/WX    TMP DP  RH WIND       PRES   REMARKS
CHAMPAIGN      CLOUDY    39  35  86 NW6       29.87R WCI  35
RANTOUL*       CLOUDY    39  37  92 NW6       29.86R WCI  35
MATTOON        CLOUDY    38  34  85 NW7       29.88R WCI  33
PARIS*         CLOUDY    38  37  94 NW5       29.87R WCI  35
$$

ILZ079-100>102-241200-
SOUTHWEST ILLINOIS

CITY           SKY/WX    TMP DP  RH WIND       PRES   REMARKS
ALTON          CLOUDY    37  31  79 CALM      29.91S
BELLEVILLE     CLOUDY    38  32  78 CALM      29.90R
CAHOKIA*       CLOUDY    40  32  73 CALM      29.91R
SPARTA*        CLOUDY    37  32  84 CALM      29.91S
$$

ILZ064>066-069>071-074>076-080>082-084>086-088>090-092>094-241200-
SOUTH-CENTRAL ILLINOIS

CITY           SKY/WX    TMP DP  RH WIND       PRES   REMARKS
CARBONDALE     CLOUDY    38  33  82 NW3       29.91R
CAIRO*         MOCLDY    34  33  98 CALM      29.91S
EFFINGHAM*     CLOUDY    40  36  88 W3        29.91R
MARION         CLOUDY    41  36  81 CALM      29.92R
MT. VERNON     CLOUDY    39  34  82 CALM      29.90R
CENTRALIA*     CLOUDY    39  36  88 W3        29.90R
SALEM*         CLOUDY    40  35  83 NW3       29.89S
METROPOLIS*    CLOUDY    40  33  77 CALM      29.92R
$$

ILZ067-068-072-073-078-083-087-091-241200-
SOUTHEAST ILLINOIS

CITY           SKY/WX    TMP DP  RH WIND       PRES   REMARKS
LAWRENCEVILLE  CLOUDY    41  35  79 NW7       29.89R
FLORA*         CLOUDY    41  35  79 NW3       29.89S
FAIRFIELD*     CLOUDY    40  35  80 CALM      29.89R
HARRISBURG*    CLOUDY    39  34  81 NW3       29.91R
ROBINSON*      CLOUDY    39  34  81 N5        29.89R
CARMI*         CLOUDY    40  36  83 W3        29.89R
$$

ABBREVIATIONS USED IN REMARKS
   TC - TEMPERATURE IN CELSIUS
  WCI - WIND CHILL INDEX
   HX - HEAT INDEX
  VSB - VISIBILITY
$$





USA.gov is the U.S. government's official web portal to all federal, state and local government web resources and services.